Flag for Australia Weather past 2 weeks in Currie, Tasmania, Australia

Now
69 °F

Mild.


Feels Like: 69 °F
Forecast: 60 / 67 °F
Wind: 5 mph from West

Location: King Island Airport

Current Time: Dec 21, 2014 at 1:38:00 PM

Latest Report: Dec 21, 2014 at 1:00 PM


Visibility: N/A

Pressure: 29.97 "Hg

Humidity: 66%

Dew point: 57 °F

Location of CurrieLocation

Historic Weather in Currie — Graph

°F

Currie temperature yesterday

Maximum temperature yesterday: 64 °F (at 1:00 PM)
Minimum temperature yesterday: 56 °F (at 11:00 PM)
Average temperature yesterday: 60 °F

Past Weeks' High & Low Weather Summary

 TemperatureHumidityPressure
High83 °F (Dec 13, 3:00 PM)100% (Dec 21, 5:00 AM)30.22 "Hg (Dec 21, 5:00 AM)
Low47 °F (Dec 17, 11:00 PM)33% (Dec 13, 3:00 PM)29.29 "Hg (Dec 16, 3:00 PM)
Average59 °F75%29.89 "Hg
* Reported Dec 6 12:00 Noon — Dec 21 12:00 Noon, Currie, Weather by CustomWeather, © 2014

Note: Actual official high and low records may vary slightly from our data, if they occured in-between our weather recording intervals... More about our weather records

Advertising

Currie weather history for previous 24 hours

 ConditionsComfort  
Time TempWeatherWind HumidityBarometerVisibility
12:00 PM
Dec 21
65 °FMild.12 mph70%30.00 "HgN/A
11:00 AM66 °FMild.9 mph71%29.98 "HgN/A
10:00 AM64 °FMild.7 mph73%29.98 "HgN/A
9:00 AM61 °FOvercast.9 mph79%29.98 "HgN/A
7:00 AM53 °FCool.5 mph100%29.96 "HgN/A
6:00 AM49 °FLow clouds.5 mph100%29.97 "Hg1 mi
5:00 AM50 °FCool.5 mph100%29.99 "HgN/A
4:00 AM51 °FCool.6 mph99%29.96 "HgN/A
3:00 AM53 °FPassing clouds.No wind98%29.96 "HgN/A
2:00 AM55 °FCool.3 mph97%29.98 "HgN/A
1:00 AM55 °FCool.2 mph97%30.01 "HgN/A
12:00 AM54 °FOvercast.No wind97%30.03 "HgN/A
11:00 PM
Dec 20
56 °FCool.1 mph94%30.04 "HgN/A
10:00 PM58 °FCool.No wind92%30.04 "HgN/A
9:00 PM59 °FOvercast.6 mph88%30.04 "HgN/A
8:00 PM59 °FCool.7 mph89%30.04 "HgN/A
7:00 PM60 °FCool.9 mph83%30.03 "HgN/A
6:00 PM58 °FLow clouds.14 mph92%30.03 "Hg2 mi
5:00 PM63 °FMild.13 mph77%30.04 "HgN/A
4:00 PM63 °FMild.15 mph76%30.04 "HgN/A
3:00 PM63 °FOvercast.16 mph79%30.06 "HgN/A
1:00 PM64 °FMild.17 mph75%30.07 "HgN/A
Weather by CustomWeather, © 2014

See weather overviewHow to use our weather pages